This is the latest recevied weather packets stored in our database for station/object N4AN. If no packets are shown the sender has not sent any weather packets the latest 1 day(s).
| Time | Temp. | Humidity | Pressure | Rain* | Wind** | Luminosity | Snow |
|---|---|---|---|---|---|---|---|
| 1836274810 | 27.22° C | 84% | 1008.9 hPa | 0 mm | 1.79 m/s, 108° | - | - |
| 1836274509 | 26.67° C | 84% | 1008.8 hPa | 0 mm | 0.89 m/s, 306° | - | - |
| 1836274360 | 27.22° C | 85% | 1008.9 hPa | 0 mm | 0.89 m/s, 216° | - | - |
| 1836274209 | 26.67° C | 84% | 1008.9 hPa | 0 mm | 0.89 m/s, 213° | - | - |
| 1836273909 | 26.67° C | 84% | 1008.9 hPa | 0 mm | 1.34 m/s, 166° | - | - |
| 1778046660 | 25.56° C | 83% | 1009.9 hPa | 0 mm | 3.13 m/s, 88° | - | - |
| 1778046360 | 25.56° C | 82% | 1009.9 hPa | 0 mm | 6.26 m/s, 89° | - | - |
| 1778046062 | 25.56° C | 82% | 1010 hPa | 0 mm | 3.58 m/s, 89° | - | - |
| 1778045759 | 25.56° C | 81% | 1010 hPa | 0 mm | 5.36 m/s, 84° | - | - |
| 1778045456 | 25.56° C | 81% | 1010 hPa | 0 mm | 1.79 m/s, 23° | - | - |
| 1778045155 | 26.11° C | 81% | 1010 hPa | 0 mm | 6.71 m/s, 89° | - | - |
| 1778044855 | 25.56° C | 80% | 1010.1 hPa | 0 mm | 1.79 m/s, 67° | - | - |
| 1778044554 | 25.56° C | 80% | 1010.2 hPa | 0 mm | 2.24 m/s, 58° | - | - |
| 1778044254 | 26.11° C | 79% | 1010.2 hPa | 0 mm | 6.71 m/s, 79° | - | - |
| 1778043953 | 26.67° C | 78% | 1010.3 hPa | 0 mm | 9.39 m/s, 89° | - | - |
| 1778043653 | 26.67° C | 77% | 1010.3 hPa | 0 mm | 2.68 m/s, 58° | - | - |
| 1778043353 | 26.67° C | 77% | 1010.3 hPa | 0 mm | 1.34 m/s, 53° | - | - |
| 1778042568 | 26.67° C | 78% | 1010.4 hPa | 0 mm | 2.68 m/s, 72° | - | - |
| 1778042267 | 26.67° C | 78% | 1010.4 hPa | 0 mm | 1.34 m/s, 76° | - | - |
| 1778041967 | 27.22° C | 77% | 1010.4 hPa | 0 mm | 2.24 m/s, 65° | - | - |
| 1778041480 | 27.22° C | 77% | 1010.5 hPa | 0 mm | 2.68 m/s, 93° | - | - |
| 1778041179 | 27.22° C | 77% | 1010.5 hPa | 0 mm | 1.79 m/s, 70° | - | - |
| 1778040878 | 26.67° C | 77% | 1010.5 hPa | 0 mm | 2.24 m/s, 47° | - | - |
| 1778040578 | 26.67° C | 77% | 1010.4 hPa | 0 mm | 3.13 m/s, 343° | - | - |
| 1778040508 | 26.67° C | 77% | 1010.5 hPa | 0 mm | 1.34 m/s, 1° | - | - |
* Rain latest hour (hover to see other rain measurements)
** Current wind speed in m/s (hover to see current wind gust speed)